1998-067RU (46924 NORAD) Tracking and Keplerian Element Data
This shows tracking and keplerian element data for the satellite.
Feedback or suggestion? Click here.
Element | Value |
Catalog | 46924 |
Name | 1998-067RU |
Epoch Orbit | 1194 |
Epoch Day | 20.9373367 |
Epoch Year | 2021 |
RAAN | 349.7231 |
Inclination | 51.6434 |
Eccentricity | 0.0001053 |
Argument of Perigee | 0.5837 |
Mean Anonmoly | 359.5155 |
Mean Motion | 15.529024 |
Decay Rate | 0.00015328 |
L1 | 1 46924U 98067RU 21020.93733670 .00015328 00000-0 24907-3 0 9992 |
L2 | 2 46924 51.6434 349.7231 0001053 0.5837 359.5155 15.52902400 11947 |
Live tracking and technical data element details for 1998-067RU (NORAD 46924). 1998-067RU can be tracked NOW for your location showing map with azimuth and elevation plus other details from your city location.
Track the satellite on the map from your city or location and see movement details for azimuth, elevation, latitude, longitude, range, height, and movement on the map or in text.
IsCatalogInMostPopularTable: catalog: 46924, numindb: 28
Update: records affected: 1
GetName: 46924 1998-067RU
Hit Count: updated at: Fri, 22 Jan 2021 16:07:38 GMT